N2UGS-WX Weather Reports


Display with metric or nautical units.
time (UTC)temp
F
wind
direction
speed
MPH
gust
MPH
rain 1hr
in
rain 24hr
in
rain mn
in
humidity
%
barometer
mb
20260506133902 46 56 0.0 0.0 0.00 0.00 0.49 99 1009.1
20260506132402 46 96 1.0 1.0 0.01 0.00 0.49 99 1009.1
20260506131402 45 125 0.0 3.0 0.02 0.00 0.49 99 1009.1
20260506130002 45 120 0.0 4.0 0.02 0.00 0.49 99 1008.8
20260506124901 45 73 2.0 4.0 0.02 0.00 0.49 99 1009.1
20260506123503 45 91 0.0 3.0 0.02 0.00 0.48 99 1009.1
20260506122401 44 57 0.0 3.0 0.03 0.00 0.48 99 1008.8
20260506120902 44 175 2.0 5.0 0.02 0.00 0.47 99 1008.8
20260506115502 44 94 0.0 5.0 0.03 0.00 0.47 99 1008.5
20260506114002 45 115 2.0 4.0 0.03 0.00 0.46 99 1008.8
20260506112402 45 123 3.0 8.0 0.02 0.00 0.45 99 1008.5
20260506111002 45 45 0.0 2.0 0.02 0.00 0.44 100 1008.8
20260506105502 45 67 2.0 3.0 0.03 0.00 0.44 100 1008.8
20260506103902 45 30 1.0 2.0 0.03 0.00 0.43 99 1008.5
20260506102503 45 149 2.0 3.0 0.05 0.00 0.42 99 1008.1
20260506101401 45 104 0.0 2.0 0.06 0.00 0.42 99 1008.5
20260506100002 45 105 3.0 4.0 0.06 0.00 0.41 99 1008.8
20260506094502 45 58 2.0 4.0 0.07 0.00 0.39 99 1009.1
20260506093502 45 22 3.0 6.0 0.06 0.00 0.38 99 1008.8
20260506092003 45 67 5.0 6.0 0.06 0.00 0.36 99 1008.8
20260506090902 45 85 3.0 7.0 0.07 0.00 0.36 99 1008.8
20260506085502 46 65 1.0 5.0 0.06 0.00 0.33 99 1008.5
20260506083902 46 70 4.0 6.0 0.06 0.00 0.32 99 1008.5
20260506082901 46 114 2.0 5.0 0.06 0.00 0.31 99 1008.5
20260506081502 46 40 3.0 4.0 0.06 0.00 0.28 99 1008.5
20260506080402 47 82 2.0 5.0 0.05 0.00 0.28 99 1008.5
20260506073501 47 53 1.0 4.0 0.06 0.00 0.25 99 1008.5
20260506071902 47 70 1.0 3.0 0.06 0.00 0.24 99 1008.5
20260506070502 47 123 2.0 3.0 0.05 0.00 0.22 99 1008.8
20260506061502 48 65 3.0 3.0 0.05 0.00 0.18 99 1008.5
20260506044502 48 337 0.0 0.0 0.06 0.00 0.06 98 1009.5
20260506043002 48 359 0.0 0.0 0.03 0.00 0.03 98 1009.1
20260506041502 48 20 0.0 0.0 0.02 0.00 0.01 98 1009.1
20260506040003 48 340 0.0 2.0 0.02 0.00 0.00 98 1009.1
20260506035502 48 31 0.0 1.0 0.04 0.00 0.67 98 1009.1
20260506034002 48 355 0.0 2.0 0.05 0.00 0.67 98 1009.1
20260506032501 49 17 0.0 1.0 0.08 0.00 0.67 98 1009.5
20260506031003 49 230 0.0 0.0 0.06 0.00 0.65 98 1009.5
20260506025502 49 137 0.0 0.0 0.04 0.00 0.63 98 1009.5
20260506024502 49 57 2.0 2.0 0.04 0.00 0.62 98 1009.8
20260506023001 49 312 0.0 0.0 0.02 0.00 0.60 97 1009.8
20260506021501 49 46 0.0 0.0 0.02 0.00 0.59 97 1009.8
20260506015902 49 335 0.0 0.0 0.02 0.00 0.59 97 1009.8
20260506014902 49 343 0.0 0.0 0.01 0.00 0.57 97 1009.8
20260506013502 48 276 0.0 2.0 0.05 0.00 0.57 97 1010.2
20260506012501 48 226 0.0 2.0 0.07 0.00 0.57 97 1009.8
20260506011003 49 273 0.0 0.0 0.09 0.00 0.56 97 1009.8
20260506005502 49 259 1.0 1.0 0.13 0.00 0.56 96 1009.8
20260506004402 49 298 0.0 0.0 0.16 0.00 0.55 96 1009.8
20260506003001 49 257 1.0 1.0 0.15 0.00 0.52 96 1009.8
20260506001502 49 266 1.0 2.0 0.13 0.00 0.48 96 1009.5
20260506000002 49 322 0.0 0.0 0.11 0.00 0.44 96 1009.5
20260505234502 49 197 0.0 0.0 0.09 0.00 0.39 96 1009.1
20260505233002 49 282 2.0 2.0 0.07 0.00 0.36 96 1009.1
20260505231504 49 298 0.0 2.0 0.09 0.00 0.34 96 1008.8
20260505230003 49 344 0.0 3.0 0.08 0.00 0.32 95 1009.1
20260505224503 49 22 2.0 5.0 0.10 0.00 0.30 95 1009.1
20260505223002 49 51 1.0 6.0 0.09 0.00 0.27 94 1009.1
20260505221502 49 333 4.0 5.0 0.15 0.00 0.25 94 1009.5
20260505220003 49 310 3.0 8.0 0.16 0.00 0.23 93 1009.1
20260505214502 50 257 2.0 6.0 0.15 0.00 0.20 93 1009.1
20260505213003 52 317 5.0 7.0 0.12 0.00 0.16 94 1008.5
20260505211502 53 317 2.0 6.0 0.06 0.00 0.10 93 1008.1
20260505210003 54 356 5.0 5.0 0.01 0.00 0.05 92 1007.8
20260505204902 54 245 3.0 10.0 0.01 0.00 0.05 90 1007.5
20260505203402 54 312 6.0 11.0 0.00 0.00 0.04 87 1007.1
20260505201902 55 238 6.0 17.0 0.00 0.00 0.04 83 1007.5
20260505200902 56 261 7.0 11.0 0.00 0.00 0.04 83 1007.5
20260505195402 57 292 4.0 9.0 0.00 0.00 0.04 78 1007.1
20260505194002 59 261 10.0 10.0 0.00 0.00 0.04 74 1006.8
20260505192902 61 257 9.0 13.0 0.00 0.00 0.04 71 1006.4
20260505191503 63 201 9.0 15.0 0.00 0.00 0.04 66 1006.4
20260505190501 66 242 7.0 13.0 0.00 0.00 0.04 63 1006.4
20260505185402 68 303 8.0 15.0 0.00 0.00 0.04 60 1006.4
20260505184402 68 357 7.0 13.0 0.00 0.00 0.04 59 1006.1
20260505183003 69 238 13.0 14.0 0.00 0.00 0.04 59 1006.1
20260505181402 69 236 6.0 15.0 0.00 0.00 0.04 59 1005.8
20260505180002 65 263 5.0 15.0 0.00 0.00 0.04 63 1005.8
20260505174502 67 260 12.0 19.0 0.00 0.00 0.04 62 1005.8
20260505173002 66 310 14.0 18.0 0.01 0.00 0.04 63 1005.8
20260505171502 66 255 11.0 19.0 0.01 0.00 0.04 64 1005.8
20260505170003 67 210 8.0 14.0 0.01 0.00 0.04 60 1005.8
20260505164502 67 275 11.0 18.0 0.01 0.00 0.04 62 1005.4
20260505163003 67 286 13.0 22.0 0.00 0.00 0.03 62 1005.4
20260505162002 66 214 5.0 20.0 0.00 0.00 0.03 61 1004.7
20260505161002 64 226 9.0 15.0 0.00 0.00 0.03 66 1005.1
20260505152502 66 228 13.0 13.0 0.00 0.00 0.03 59 1004.4
20260505151002 65 232 14.0 16.0 0.00 0.00 0.03 62 1004.4